World > North America > United States > Illinois > Broadmoor  

Broadmoor, IL Hourly Weather Updates

Feedback E-mail the Weather

Quick Clicks

Broadmoor, IL Weather Maps

°F °C°F °C
Broadmoor Weather Map
UTC Time: 4/15/2024, 21:14
Your Time:

Broadmoor, IL Regional Weather

Expires:202404152200;;801587
ASUS43 KLOT 152110
RWRIL 

ILLINOIS REGIONAL WEATHER ROUNDUP
NATIONAL WEATHER SERVICE CHICAGO/ROMEOVILLE IL
400 PM CDT MON APR 15 2024

NOTE: "FAIR" INDICATES FEW OR NO CLOUDS BELOW 12,000 FEET WITH NO
SIGNIFICANT WEATHER AND/OR OBSTRUCTIONS TO VISIBILITY.

* THESE STATIONS ARE NOT UNDER NWS QUALITY CONTROL. THEY ALSO MAY NOT
  REPORT WEATHER SUCH AS PRECIPITATION OR FOG.


ILZ028>032-037-038-041>044-048-051>054-059>061-152200-
CENTRAL ILLINOIS
  
CITY           SKY/WX    TMP DP  RH WIND       PRES   REMARKS
PONTIAC        SUNNY     78  35  21 NE10      29.97S TC  26           
BLOOMINGTON    SUNNY     80  41  24 E12       29.97F TC  27           
DECATUR        SUNNY     82  46  28 NE10      29.93F HX  80  TC  28   
PEORIA         SUNNY     79  40  24 E10       29.95F TC  26           
LACON*         SUNNY     78  36  22 NE8       29.96S TC  25           
LINCOLN*       SUNNY     81  42  24 NE8G16    29.94S HX  80  TC  27   
SPRINGFIELD    MOSUNNY   82  43  25 NE8       29.92F HX  80  TC  28   
TAYLORVILLE    MOSUNNY   82  41  23 MISG      29.93F HX  80  TC  28   
$$


SKY/WX - Weather  TMP - Temperature  DP - Dew Point  RH - Humidity
WIND - Wind Direction/Speed PRES - Barometric Pressure VSB - Visibility
WCI - Wind Chill Index E13G22 Wind - East Wind 13 mph/Gusts of 22 mph

Trending Headlines

Trending Entertainment Headlines

Broadmoor Radar Loop

Use the map search tool if you want to place a location marker on the radar map...

Broadmoor Quick Facts

National Two Day Weather Forecast


E-mail the Broadmoor Weather Forecast

Voice your opinion or tell us about page issues...